FW8046 Weather Reports


time (UTC)temp
C
wind
direction
speed
KPH
gust
KPH
rain 1hr
cm
rain 24hr
cm
rain mn
cm
humidity
%
barometer
mb
20260510095153 17 348 1.6 3.2 0.00 0.00 0.00 80 1016.1
20260510094651 18 345 1.6 1.6 0.00 0.00 0.00 79 1016.1
20260510094148 18 347 0.0 1.6 0.00 0.00 0.00 79 1015.9
20260510093644 18 345 0.0 0.0 0.00 0.00 0.00 79 1015.7
20260510093141 18 349 0.0 0.0 0.00 0.00 0.00 78 1015.6
20260510092638 18 342 0.0 0.0 0.00 0.00 0.00 78 1015.5
20260510092133 18 336 0.0 0.0 0.00 0.00 0.00 78 1015.2
20260510091629 18 347 0.0 0.0 0.00 0.00 0.00 78 1015.3
20260510091125 18 346 0.0 1.6 0.00 0.00 0.00 77 1014.9
20260510090623 18 348 0.0 1.6 0.00 0.00 0.00 76 1014.6
20260510090119 18 347 0.0 0.0 0.00 0.00 0.00 76 1014.7
20260510085614 18 346 0.0 1.6 0.00 0.00 0.00 75 1015.0
20260510085109 18 349 0.0 1.6 0.00 0.00 0.00 75 1014.6
20260510084606 18 348 0.0 0.0 0.00 0.00 0.00 74 1014.4
20260510084103 18 354 0.0 0.0 0.00 0.00 0.00 73 1014.6
20260510083559 18 347 0.0 0.0 0.00 0.00 0.00 72 1014.6
20260510083055 18 347 0.0 1.6 0.00 0.00 0.00 72 1014.6
20260510082553 18 345 0.0 0.0 0.00 0.00 0.00 72 1014.5
20260510082048 18 324 0.0 1.6 0.00 0.00 0.00 71 1014.5
20260510081543 17 343 0.0 0.0 0.00 0.00 0.00 72 1014.6
20260510081039 17 355 0.0 0.0 0.00 0.00 0.00 74 1015.2
20260510080538 17 347 0.0 0.0 0.00 0.00 0.00 77 1015.2
20260510080035 17 356 0.0 0.0 0.00 0.00 0.00 78 1015.0
20260510075533 16 354 0.0 0.0 0.00 0.00 0.00 78 1014.7
20260510075030 16 348 0.0 0.0 0.00 0.00 0.00 80 1014.5
20260510074527 16 343 0.0 0.0 0.00 0.00 0.00 82 1014.6
20260510074022 16 346 0.0 0.0 0.00 0.00 0.00 82 1014.9
20260510073519 16 347 0.0 0.0 0.00 0.00 0.00 82 1014.7
20260510073016 16 347 0.0 0.0 0.00 0.00 0.00 82 1014.5
20260510072512 16 347 0.0 0.0 0.00 0.00 0.00 82 1014.9
20260510072008 16 343 0.0 0.0 0.00 0.00 0.00 83 1014.9
20260510071504 16 347 0.0 0.0 0.00 0.00 0.00 83 1014.6
20260510071003 16 344 0.0 0.0 0.00 0.00 0.00 84 1014.9
20260510070459 16 346 0.0 0.0 0.00 0.00 0.00 83 1015.0
20260510065955 16 347 0.0 0.0 0.00 0.00 0.00 83 1015.0
20260510065452 16 346 0.0 0.0 0.00 0.00 0.00 82 1015.3
20260510064948 16 347 0.0 0.0 0.00 0.00 0.00 81 1015.1
20260510064446 16 347 0.0 0.0 0.00 0.00 0.00 81 1015.3
20260510063942 17 2 0.0 0.0 0.00 0.00 0.00 81 1015.5
20260510063438 17 351 0.0 0.0 0.00 0.00 0.00 80 1015.5
20260510062936 17 347 0.0 0.0 0.00 0.00 0.00 80 1015.6
20260510062431 17 347 0.0 0.0 0.00 0.00 0.00 80 1015.7
20260510061926 17 351 0.0 0.0 0.00 0.00 0.00 79 1015.8
20260510061423 17 343 0.0 0.0 0.00 0.00 0.00 80 1015.6
20260510060919 16 342 0.0 0.0 0.00 0.00 0.00 80 1015.8
20260510060416 16 343 0.0 0.0 0.00 0.00 0.00 80 1015.8
20260510055913 16 347 0.0 0.0 0.00 0.00 0.00 80 1015.8
20260510055408 16 343 0.0 0.0 0.00 0.00 0.00 82 1015.7
20260510054906 16 343 0.0 0.0 0.00 0.00 0.00 82 1015.8
20260510054402 16 347 0.0 0.0 0.00 0.00 0.00 82 1015.5
20260510053857 16 347 0.0 0.0 0.00 0.00 0.00 82 1015.4
20260510053353 16 345 0.0 0.0 0.00 0.00 0.00 83 1015.4
20260510052849 16 346 0.0 0.0 0.00 0.00 0.00 83 1015.4
20260510052345 16 345 0.0 0.0 0.00 0.00 0.00 82 1015.6
20260510051841 16 347 0.0 0.0 0.00 0.00 0.00 83 1015.3
20260510051338 16 351 0.0 0.0 0.00 0.00 0.00 82 1015.5
20260510050835 16 347 0.0 0.0 0.00 0.00 0.00 82 1015.2
20260510050332 16 347 0.0 0.0 0.00 0.00 0.00 81 1015.2
20260510045829 16 347 0.0 0.0 0.00 0.00 0.00 81 1015.1
20260510045326 16 346 0.0 0.0 0.00 0.00 0.00 80 1015.2
20260510044823 16 347 0.0 0.0 0.00 0.00 0.00 81 1015.2
20260510044320 16 348 0.0 0.0 0.00 0.00 0.00 80 1014.9
20260510043816 16 347 0.0 0.0 0.00 0.00 0.00 80 1014.9
20260510043312 16 347 0.0 0.0 0.00 0.00 0.00 80 1015.1
20260510042810 16 348 0.0 0.0 0.00 0.00 0.00 79 1015.0
20260510042307 16 348 0.0 0.0 0.00 0.00 0.00 79 1015.3
20260510041803 16 352 0.0 0.0 0.00 0.00 0.00 78 1015.1
20260510041300 16 346 0.0 0.0 0.00 0.00 0.00 78 1015.1
20260510040757 16 348 0.0 0.0 0.00 0.00 0.00 77 1015.1
20260510040254 16 353 0.0 0.0 0.00 0.00 0.00 77 1015.2
20260510035749 17 345 0.0 0.0 0.00 0.00 0.00 75 1015.1
20260510035244 17 346 0.0 0.0 0.00 0.00 0.00 74 1015.1
20260510034740 17 343 0.0 0.0 0.00 0.00 0.00 73 1014.7
20260510034239 17 342 0.0 0.0 0.00 0.00 0.00 73 1014.9
20260510033734 17 342 0.0 1.6 0.00 0.00 0.00 72 1014.6
20260510033232 17 348 0.0 0.0 0.00 0.00 0.00 72 1014.1
20260510032729 17 347 0.0 0.0 0.00 0.00 0.00 71 1014.0
20260510032225 17 346 0.0 0.0 0.00 0.00 0.00 70 1014.4
20260510031720 17 346 0.0 0.0 0.00 0.00 0.00 69 1014.0
20260510031216 17 347 0.0 0.0 0.00 0.00 0.00 69 1014.0
20260510030715 17 347 0.0 0.0 0.00 0.00 0.00 69 1013.9
20260510030213 17 345 0.0 0.0 0.00 0.00 0.00 69 1013.9
20260510025711 18 347 0.0 0.0 0.00 0.00 0.00 68 1013.8
20260510025208 18 347 0.0 0.0 0.00 0.00 0.00 67 1013.8
20260510024705 18 346 0.0 0.0 0.00 0.00 0.00 65 1013.8
20260510024201 18 346 0.0 0.0 0.00 0.00 0.00 64 1013.5
20260510023657 18 348 0.0 0.0 0.00 0.00 0.00 64 1013.5
20260510023154 18 345 0.0 0.0 0.00 0.00 0.00 62 1013.5
20260510022649 19 347 0.0 0.0 0.00 0.00 0.00 63 1013.2
20260510022144 19 343 0.0 0.0 0.00 0.00 0.00 60 1013.1
20260510021640 19 346 0.0 0.0 0.00 0.00 0.00 60 1013.0
20260510021137 20 344 0.0 0.0 0.00 0.00 0.00 60 1013.0
20260510020632 20 344 0.0 0.0 0.00 0.00 0.00 59 1012.7
20260510020127 20 347 0.0 0.0 0.00 0.00 0.00 59 1012.9
20260510015624 20 347 0.0 0.0 0.00 0.00 0.00 57 1012.6
20260510015120 20 345 0.0 0.0 0.00 0.00 0.00 55 1012.6
20260510014615 21 346 0.0 0.0 0.00 0.00 0.00 55 1012.6
20260510014108 21 347 0.0 0.0 0.00 0.00 0.00 53 1012.4
20260510013602 21 348 0.0 0.0 0.00 0.00 0.00 52 1012.2
20260510013058 22 346 0.0 0.0 0.00 0.00 0.00 50 1012.2
20260510012557 22 347 0.0 0.0 0.00 0.00 0.00 50 1012.4
20260510012054 22 344 0.0 0.0 0.00 0.00 0.00 47 1012.0
20260510011553 23 346 0.0 0.0 0.00 0.00 0.00 47 1011.9
20260510011050 23 348 0.0 0.0 0.00 0.00 0.00 45 1012.0
20260510010546 23 343 0.0 0.0 0.00 0.00 0.00 44 1012.3
20260510010044 23 347 0.0 0.0 0.00 0.00 0.00 44 1011.9
20260510005539 24 346 0.0 0.0 0.00 0.00 0.00 44 1011.6
20260510005037 24 345 0.0 0.0 0.00 0.00 0.00 43 1011.9
20260510004534 25 347 0.0 1.6 0.00 0.00 0.00 43 1011.7
20260510004032 25 358 0.0 1.6 0.00 0.00 0.00 42 1011.8
20260510003528 25 339 0.0 1.6 0.00 0.00 0.00 41 1011.7
20260510003024 25 58 0.0 1.6 0.00 0.00 0.00 41 1011.8
20260510002520 26 349 0.0 1.6 0.00 0.00 0.00 41 1011.8
20260510002017 26 7 0.0 1.6 0.00 0.00 0.00 41 1011.9
20260510001514 26 358 0.0 1.6 0.00 0.00 0.00 40 1011.8
20260510001012 26 341 0.0 1.6 0.00 0.00 0.00 40 1011.8
20260510000512 26 351 0.0 1.6 0.00 0.00 0.00 40 1011.8
20260510000009 26 347 0.0 1.6 0.00 0.00 0.00 41 1011.9
20260509235507 27 346 0.0 0.0 0.00 0.00 0.00 39 1011.8
20260509235003 27 344 0.0 1.6 0.00 0.00 0.00 39 1011.8
20260509234500 26 344 0.0 3.2 0.00 0.00 0.00 39 1011.8
20260509233958 27 326 1.6 3.2 0.00 0.00 0.00 38 1011.8
20260509233454 27 346 1.6 3.2 0.00 0.00 0.00 37 1012.2
20260509232950 28 344 0.0 1.6 0.00 0.00 0.00 39 1011.8
20260509232448 27 338 0.0 1.6 0.00 0.00 0.00 39 1011.9
20260509231944 27 346 0.0 3.2 0.00 0.00 0.00 38 1011.8
20260509231441 28 351 0.0 3.2 0.00 0.00 0.00 38 1012.0
20260509230939 28 344 0.0 1.6 0.00 0.00 0.00 38 1011.9
20260509230436 29 342 0.0 3.2 0.00 0.00 0.00 37 1011.9
20260509225932 28 335 1.6 4.8 0.00 0.00 0.00 37 1011.9
20260509225428 28 341 0.0 4.8 0.00 0.00 0.00 37 1011.8
20260509224925 28 338 0.0 4.8 0.00 0.00 0.00 38 1011.8
20260509224420 27 223 4.8 9.7 0.00 0.00 0.00 38 1011.9
20260509223917 28 341 1.6 4.8 0.00 0.00 0.00 38 1012.0
20260509223414 27 343 1.6 8.0 0.00 0.00 0.00 37 1012.2
20260509222911 28 341 0.0 1.6 0.00 0.00 0.00 37 1012.2
20260509222407 28 343 1.6 4.8 0.00 0.00 0.00 38 1012.0
20260509221902 28 305 3.2 4.8 0.00 0.00 0.00 37 1011.9
20260509221400 28 340 0.0 4.8 0.00 0.00 0.00 36 1012.3
20260509220855 29 320 1.6 1.6 0.00 0.00 0.00 35 1012.0
20260509220351 30 332 0.0 1.6 0.00 0.00 0.00 34 1011.8
20260509215846 29 342 0.0 1.6 0.00 0.00 0.00 34 1012.0
20260509215344 28 349 0.0 1.6 0.00 0.00 0.00 37 1012.0
20260509214840 29 355 1.6 3.2 0.00 0.00 0.00 36 1011.9
20260509214338 29 341 1.6 1.6 0.00 0.00 0.00 35 1011.9
20260509213835 28 330 1.6 3.2 0.00 0.00 0.00 36 1012.0
20260509213330 29 340 1.6 3.2 0.00 0.00 0.00 35 1012.2
20260509212828 29 42 0.0 3.2 0.00 0.00 0.00 37 1012.0
20260509212326 28 347 1.6 3.2 0.00 0.00 0.00 37 1012.0
20260509211821 28 341 0.0 3.2 0.00 0.00 0.00 37 1012.2
20260509211317 27 354 0.0 1.6 0.00 0.00 0.00 38 1012.4
20260509210814 27 340 0.0 1.6 0.00 0.00 0.00 39 1012.6
20260509210312 27 54 0.0 1.6 0.00 0.00 0.00 39 1012.4
20260509205811 27 344 0.0 1.6 0.00 0.00 0.00 41 1012.6
20260509205307 27 341 0.0 1.6 0.00 0.00 0.00 40 1012.7
20260509204802 27 337 0.0 1.6 0.00 0.00 0.00 39 1012.8
20260509204258 28 341 0.0 1.6 0.00 0.00 0.00 40 1012.8
20260509203755 28 124 1.6 3.2 0.00 0.00 0.00 38 1012.7
20260509203252 27 357 1.6 3.2 0.00 0.00 0.00 38 1012.6
20260509202748 28 357 0.0 0.0 0.00 0.00 0.00 38 1012.8
20260509202239 27 343 1.6 1.6 0.00 0.00 0.00 38 1012.8
20260509201738 27 340 0.0 1.6 0.00 0.00 0.00 40 1012.8
20260509201236 27 354 0.0 1.6 0.00 0.00 0.00 40 1013.1
20260509200732 28 353 1.6 1.6 0.00 0.00 0.00 41 1012.9
20260509200227 27 341 1.6 1.6 0.00 0.00 0.00 38 1012.9
20260509195723 27 355 1.6 1.6 0.00 0.00 0.00 40 1012.8
20260509195218 28 357 0.0 3.2 0.00 0.00 0.00 40 1012.9
20260509194713 28 5 0.0 1.6 0.00 0.00 0.00 38 1013.0
20260509194210 28 79 3.2 4.8 0.00 0.00 0.00 38 1012.9
20260509193707 28 80 1.6 3.2 0.00 0.00 0.00 39 1012.9
20260509193206 28 341 0.0 1.6 0.00 0.00 0.00 38 1013.2
20260509192703 28 317 1.6 3.2 0.00 0.00 0.00 40 1013.0
20260509192158 28 334 0.0 1.6 0.00 0.00 0.00 40 1013.1
20260509191654 27 250 6.4 9.7 0.00 0.00 0.00 40 1013.3
20260509191150 27 341 0.0 1.6 0.00 0.00 0.00 44 1013.5
20260509190646 27 346 0.0 3.2 0.00 0.00 0.00 42 1013.3
20260509190144 27 339 1.6 4.8 0.00 0.00 0.00 42 1013.4
20260509185642 27 294 1.6 8.0 0.00 0.00 0.00 41 1013.2
20260509185137 27 339 0.0 3.2 0.00 0.00 0.00 43 1013.3
20260509184635 27 313 3.2 8.0 0.00 0.00 0.00 40 1013.1
20260509184132 27 47 1.6 1.6 0.00 0.00 0.00 40 1013.2
20260509183628 28 304 4.8 8.0 0.00 0.00 0.00 39 1013.4
20260509183123 27 331 1.6 4.8 0.00 0.00 0.00 42 1013.3
20260509182620 27 36 1.6 4.8 0.00 0.00 0.00 42 1013.6
20260509182117 27 324 0.0 3.2 0.00 0.00 0.00 45 1013.3
20260509181615 27 333 1.6 3.2 0.00 0.00 0.00 43 1013.6
20260509181112 27 347 0.0 3.2 0.00 0.00 0.00 45 1013.5
20260509180608 27 2 1.6 1.6 0.00 0.00 0.00 45 1013.4
20260509180105 27 335 1.6 3.2 0.00 0.00 0.00 46 1013.6
20260509175601 26 341 0.0 1.6 0.00 0.00 0.00 45 1013.4
20260509175058 26 340 0.0 8.0 0.00 0.00 0.00 46 1013.6
20260509174554 26 340 3.2 3.2 0.00 0.00 0.00 45 1013.7
20260509174049 26 338 3.2 4.8 0.00 0.00 0.00 44 1013.6
20260509173544 26 344 1.6 8.0 0.00 0.00 0.00 43 1013.8
20260509173040 26 313 3.2 8.0 0.00 0.00 0.00 44 1013.7
20260509172538 26 262 4.8 4.8 0.00 0.00 0.00 48 1013.8
20260509172033 27 329 3.2 3.2 0.00 0.00 0.00 50 1013.9
20260509171529 26 340 0.0 1.6 0.00 0.00 0.00 50 1013.8
20260509171026 26 333 1.6 4.8 0.00 0.00 0.00 52 1014.0
20260509170522 26 344 0.0 1.6 0.00 0.00 0.00 51 1013.5
20260509170018 26 347 0.0 1.6 0.00 0.00 0.00 52 1013.6
20260509165516 26 337 1.6 3.2 0.00 0.00 0.00 49 1013.6
20260509165012 25 13 0.0 1.6 0.00 0.00 0.00 51 1013.5
20260509164509 25 17 0.0 3.2 0.00 0.00 0.00 51 1013.6
20260509164004 25 342 1.6 1.6 0.00 0.00 0.00 59 1013.7
20260509163502 25 343 1.6 1.6 0.00 0.00 0.00 57 1013.9
20260509163001 25 349 3.2 4.8 0.00 0.00 0.00 55 1013.9
20260509162500 25 345 0.0 3.2 0.00 0.00 0.00 60 1013.7
20260509161955 25 343 0.0 3.2 0.00 0.00 0.00 59 1013.7
20260509161452 25 330 3.2 4.8 0.00 0.00 0.00 60 1013.7
20260509160947 25 325 0.0 3.2 0.00 0.00 0.00 60 1013.7
20260509160444 25 307 0.0 4.8 0.00 0.00 0.00 61 1013.8
20260509155938 23 343 0.0 4.8 0.00 0.00 0.00 64 1013.8
20260509155435 23 281 4.8 4.8 0.00 0.00 0.00 63 1013.7
20260509154932 23 331 1.6 3.2 0.00 0.00 0.00 64 1013.9
20260509154428 23 304 6.4 9.7 0.00 0.00 0.00 63 1013.7
20260509153926 22 346 0.0 4.8 0.00 0.00 0.00 67 1013.9
20260509153422 23 259 3.2 4.8 0.00 0.00 0.00 64 1014.0
20260509152920 23 349 0.0 1.6 0.00 0.00 0.00 69 1013.9
20260509152415 23 344 1.6 1.6 0.00 0.00 0.00 65 1013.9
20260509151912 23 359 0.0 1.6 0.00 0.00 0.00 68 1013.9
20260509151408 22 346 0.0 1.6 0.00 0.00 0.00 72 1013.9
20260509150907 22 348 1.6 8.0 0.00 0.00 0.00 70 1013.8
20260509150404 22 0 0.0 0.0 0.00 0.00 0.00 72 1013.7
20260509145902 22 347 0.0 3.2 0.00 0.00 0.00 71 1013.9
20260509145401 22 343 1.6 4.8 0.00 0.00 0.00 70 1013.7
20260509144858 21 348 0.0 0.0 0.00 0.00 0.00 73 1013.8
20260509144355 21 354 3.2 4.8 0.00 0.00 0.00 72 1013.7
20260509143852 21 9 0.0 1.6 0.00 0.00 0.00 74 1013.8
20260509143349 20 252 4.8 8.0 0.00 0.00 0.00 75 1013.7
20260509142845 20 323 3.2 4.8 0.00 0.00 0.00 74 1013.6
20260509142342 21 346 3.2 4.8 0.00 0.00 0.00 72 1013.7
20260509141837 21 347 0.0 3.2 0.00 0.00 0.00 74 1013.7
20260509141335 21 350 0.0 1.6 0.00 0.00 0.00 72 1013.9
20260509140831 21 346 0.0 1.6 0.00 0.00 0.00 75 1013.7
20260509140328 20 342 0.0 0.0 0.00 0.00 0.00 74 1013.6
20260509135826 20 348 0.0 1.6 0.00 0.00 0.00 77 1013.5
20260509135323 20 340 0.0 8.0 0.00 0.00 0.00 76 1013.4
20260509134821 19 346 0.0 0.0 0.00 0.00 0.00 77 1013.3
20260509134318 19 341 1.6 3.2 0.00 0.00 0.00 78 1013.4
20260509133815 19 339 0.0 1.6 0.00 0.00 0.00 77 1013.3
20260509133311 20 345 0.0 0.0 0.00 0.00 0.00 75 1013.2
20260509132810 20 344 0.0 0.0 0.00 0.00 0.00 75 1013.2
20260509132308 19 346 0.0 0.0 0.00 0.00 0.00 75 1013.3
20260509131804 18 5 0.0 0.0 0.00 0.00 0.00 77 1013.1
20260509131301 18 352 0.0 0.0 0.00 0.00 0.00 78 1013.0
20260509130757 18 345 0.0 1.6 0.00 0.00 0.00 79 1013.1
20260509130253 17 346 0.0 0.0 0.00 0.00 0.00 81 1013.1
20260509125750 17 347 0.0 0.0 0.00 0.00 0.00 81 1013.2
20260509125247 17 346 0.0 0.0 0.00 0.00 0.00 80 1013.2
20260509124743 17 346 0.0 0.0 0.00 0.00 0.00 78 1012.9
20260509124240 17 346 0.0 0.0 0.00 0.00 0.00 79 1012.9
20260509123738 16 346 0.0 0.0 0.00 0.00 0.00 80 1013.0
20260509123235 15 346 0.0 0.0 0.00 0.00 0.00 87 1013.2
20260509122731 13 346 0.0 0.0 0.00 0.00 0.00 92 1013.0
20260509122227 13 346 0.0 0.0 0.00 0.00 0.00 94 1013.0
20260509121724 12 346 0.0 0.0 0.00 0.00 0.00 95 1012.7
20260509121222 12 346 0.0 0.0 0.00 0.00 0.00 96 1012.7
20260509120720 11 346 0.0 0.0 0.00 0.00 0.00 96 1013.0
20260509120218 10 346 0.0 0.0 0.00 0.00 0.00 96 1012.7
20260509115715 10 346 0.0 0.0 0.00 0.00 0.00 96 1012.8
20260509115212 10 346 0.0 0.0 0.00 0.00 0.00 96 1012.6
20260509114711 10 346 0.0 0.0 0.00 0.00 0.00 96 1012.7
20260509114209 10 346 0.0 0.0 0.00 0.00 0.00 96 1012.8
20260509113707 10 346 0.0 0.0 0.00 0.00 0.00 96 1012.5
20260509113204 10 345 0.0 0.0 0.00 0.00 0.00 95 1012.5
20260509112701 10 346 0.0 0.0 0.00 0.00 0.00 95 1012.4
20260509112158 10 350 0.0 0.0 0.00 0.00 0.00 96 1012.4
20260509111655 10 345 0.0 0.0 0.00 0.00 0.00 95 1012.4
20260509111151 10 346 0.0 0.0 0.00 0.00 0.00 95 1012.3
20260509110649 10 345 0.0 0.0 0.00 0.00 0.00 95 1012.3
20260509110146 10 342 0.0 0.0 0.00 0.00 0.00 95 1012.5
20260509105644 10 342 0.0 0.0 0.00 0.00 0.00 95 1012.4
20260509105141 10 345 0.0 0.0 0.00 0.00 0.00 95 1012.6
20260509104638 10 344 0.0 0.0 0.00 0.00 0.00 95 1012.3
20260509104134 10 344 0.0 0.0 0.00 0.00 0.00 95 1012.2
20260509103633 10 345 0.0 0.0 0.00 0.00 0.00 95 1012.3
20260509103130 10 346 0.0 0.0 0.00 0.00 0.00 95 1012.0
20260509102628 10 346 0.0 0.0 0.00 0.00 0.00 95 1012.0
20260509102124 10 346 0.0 0.0 0.00 0.00 0.00 95 1012.0
20260509101621 10 345 0.0 0.0 0.00 0.00 0.00 94 1012.0
20260509101118 10 346 0.0 0.0 0.00 0.00 0.00 94 1011.8
20260509100615 10 346 0.0 0.0 0.00 0.00 0.00 94 1012.0
20260509100112 11 345 0.0 0.0 0.00 0.00 0.00 94 1011.8
20260509095608 11 347 0.0 0.0 0.00 0.00 0.00 94 1012.2